Retour au catalogue

SL-14 DEB

ActifPO
NORAD 25204·DEBRIS·🇷🇺 Russia

Lancé Aug 18, 1987 depuis Plesetsk Cosmodrome

Loading…

Prochains Passages (prochaines 24 heures)

TLE

FraisSource: Space-Track

Époque: Sep 14, 2026, 00:05 UTC

1 25204U 87068AF  26257.00386296  .00002018  00000-0  11618-2 0  9998
2 25204  82.4224  88.2501 0102329 304.7470 208.5554 14.06234358443122

Suivez SL-14 DEB en temps réel avec AllMySat

Download on the App Store